Weather History for Dalton, GA

Change the Weather History Date:

Tuesday, February 26, 2013

  Actual Average Record
Temperature  
Mean Temperature 46 °F -  
Max Temperature 50 °F 55 °F 72 °F (1972)
Min Temperature 41 °F 31 °F 7 °F (1967)
Degree Days  
Heating Degree Days 20    
Moisture  
Dew Point 42 °F    
Average Humidity 89    
Maximum Humidity 100    
Minimum Humidity 62    
Precipitation  
Precipitation 0.04 in - - ()
Sea Level Pressure  
Sea Level Pressure 29.63 in    
Wind  
Wind Speed 7 mph (South)    
Max Wind Speed 14 mph    
Max Gust Speed 21 mph    
Visibility 9 miles    
Events Rain    
Averages and records for this station are not official NWS values.
T = Trace of Precipitation, MM = Missing Value Source: NWS Daily Summary

Daily Weather History Graph

Daily Weather History Graph

Search for Another Location

Airport:

Trip Planner

Search our weather history database for the weather conditions in past years. The results will help you decide how hot, cold, wet, or windy it might be!

Date:

Astronomy

Feb. 26, 2013 Rise Set
Actual Time 7:12 AM EST 6:32 PM EST
Civil Twilight 6:46 AM EST 6:58 PM EST
Nautical Twilight 6:17 AM EST 7:27 PM EST
Astronomical Twilight 5:48 AM EST 7:56 PM EST
Moon 7:43 PM EST (2/26) 7:18 AM EST (2/26)
Length of Visible Light 12h 11m
Length of Day
11h 20m
Full, 99% of the Moon is Illuminated
Feb 26
Full
Mar 4
Last Quarter
Mar 11
New
Mar 19
First Quarter
Mar 27
Full

Hourly Weather History & Observations

Time (EST) Temp. Windchill Dew Point Humidity Pressure Visibility Wind Dir Wind Speed Gust Speed Precip Events Conditions
12:15 AM 46.4 °F 42.9 °F 42.8 °F 87% 29.77 in 10.0 mi SSE 6.9 mph - N/A   Drizzle
12:35 AM 44.6 °F - 44.6 °F 100% 29.77 in 7.0 mi Calm Calm - N/A Rain Rain
12:55 AM 44.6 °F 43.1 °F 44.6 °F 100% 29.75 in 5.0 mi SE 3.5 mph - N/A Rain Heavy Rain
1:15 AM 44.6 °F 40.7 °F 44.6 °F 100% 29.74 in 7.0 mi South 6.9 mph - 0.01 in Rain Light Rain
1:35 AM 42.8 °F 39.3 °F 42.8 °F 100% 29.75 in 7.0 mi South 5.8 mph - 0.01 in Rain Light Rain
1:55 AM 42.8 °F 36.6 °F 42.8 °F 100% 29.72 in 7.0 mi SE 11.5 mph 18.4 mph 0.01 in Rain Light Rain
2:15 AM 42.8 °F 40.1 °F 42.8 °F 100% 29.70 in 10.0 mi SSE 4.6 mph - N/A Rain Light Rain
2:35 AM 44.6 °F 41.4 °F 44.6 °F 100% 29.68 in 10.0 mi SE 5.8 mph - N/A Rain Rain
2:55 AM 42.8 °F 37.5 °F 42.8 °F 100% 29.68 in 7.0 mi SSE 9.2 mph - N/A Rain Rain
3:15 AM 42.8 °F 38.6 °F 42.8 °F 100% 29.67 in 10.0 mi SSE 6.9 mph - N/A Rain Rain
3:35 AM 42.8 °F 36.6 °F 42.8 °F 100% 29.65 in 10.0 mi SSE 11.5 mph 16.1 mph N/A Rain Light Rain
3:55 AM 42.8 °F 36.2 °F 42.8 °F 100% 29.63 in 10.0 mi SE 12.7 mph 16.1 mph N/A Rain Light Rain
4:15 AM 44.6 °F 39.7 °F 42.8 °F 93% 29.60 in 10.0 mi SSE 9.2 mph 17.3 mph N/A Rain Light Rain
4:35 AM 44.6 °F 39.7 °F 42.8 °F 93% 29.60 in 7.0 mi SE 9.2 mph - 0.01 in Rain Rain
4:55 AM 44.6 °F 41.4 °F 44.6 °F 100% 29.59 in 1.8 mi South 5.8 mph - 0.02 in   Unknown
5:15 AM 44.6 °F 41.4 °F 44.6 °F 100% 29.59 in 5.0 mi South 5.8 mph - N/A Rain Rain
5:35 AM 44.6 °F 41.4 °F 44.6 °F 100% 29.60 in 10.0 mi South 5.8 mph - 0.01 in   Drizzle
5:55 AM 44.6 °F 40.7 °F 44.6 °F 100% 29.60 in 10.0 mi South 6.9 mph - 0.01 in   Light Drizzle
6:15 AM 44.6 °F 40.2 °F 44.6 °F 100% 29.57 in 10.0 mi SSE 8.1 mph - N/A   Drizzle
6:35 AM 44.6 °F 40.2 °F 44.6 °F 100% 29.55 in 10.0 mi South 8.1 mph - N/A   Overcast
6:55 AM 44.6 °F 40.2 °F 44.6 °F 100% 29.53 in 10.0 mi South 8.1 mph - N/A   Overcast
7:15 AM 46.4 °F 41.9 °F 44.6 °F 93% 29.50 in 10.0 mi SSE 9.2 mph 16.1 mph N/A   Overcast
7:35 AM 46.4 °F 42.9 °F 44.6 °F 93% 29.50 in 10.0 mi South 6.9 mph - N/A   Overcast
7:55 AM 46.4 °F 42.9 °F 44.6 °F 93% 29.51 in 10.0 mi SSW 6.9 mph - N/A   Overcast
8:15 AM 44.6 °F 40.7 °F 42.8 °F 93% 29.54 in 10.0 mi SSW 6.9 mph - N/A   Overcast
8:35 AM 42.8 °F 38.6 °F 42.8 °F 100% 29.56 in 10.0 mi SW 6.9 mph - N/A   Drizzle
8:55 AM 42.8 °F 37.5 °F 42.8 °F 100% 29.57 in 7.0 mi South 9.2 mph - N/A   Drizzle
9:15 AM 42.8 °F 38.6 °F 42.8 °F 100% 29.56 in 7.0 mi South 6.9 mph - N/A   Light Drizzle
9:35 AM 42.8 °F 38.0 °F 42.8 °F 100% 29.56 in 10.0 mi SSW 8.1 mph - N/A   Light Drizzle
9:55 AM 42.8 °F 38.6 °F 42.8 °F 100% 29.56 in 10.0 mi SSW 6.9 mph - N/A   Drizzle
10:15 AM 42.8 °F 39.3 °F 42.8 °F 100% 29.56 in 10.0 mi South 5.8 mph - N/A   Overcast
10:35 AM 42.8 °F 40.1 °F 42.8 °F 100% 29.56 in 10.0 mi South 4.6 mph - N/A   Overcast
10:55 AM 44.6 °F 42.2 °F 42.8 °F 93% 29.56 in 10.0 mi South 4.6 mph - N/A   Light Drizzle
11:15 AM 44.6 °F 42.2 °F 44.6 °F 100% 29.56 in 10.0 mi South 4.6 mph - N/A Rain Light Rain
11:35 AM 44.6 °F 40.7 °F 44.6 °F 100% 29.56 in 10.0 mi South 6.9 mph - N/A   Overcast
11:55 AM 44.6 °F 41.4 °F 44.6 °F 100% 29.55 in 10.0 mi South 5.8 mph - N/A   Overcast
12:15 PM 46.4 °F 42.9 °F 44.6 °F 93% 29.55 in 10.0 mi SW 6.9 mph - N/A   Overcast
12:35 PM 44.6 °F 40.2 °F 44.6 °F 100% 29.57 in 10.0 mi SSW 8.1 mph - N/A   Overcast
12:55 PM 44.6 °F 41.4 °F 42.8 °F 93% 29.57 in 7.0 mi SSW 5.8 mph - N/A   Overcast
1:15 PM 44.6 °F 40.7 °F 42.8 °F 93% 29.58 in 4.0 mi SSW 6.9 mph - N/A   Light Drizzle
1:35 PM 44.6 °F 41.4 °F 44.6 °F 100% 29.58 in 7.0 mi SSE 5.8 mph - N/A   Overcast
1:55 PM 44.6 °F 40.7 °F 44.6 °F 100% 29.58 in 10.0 mi SSE 6.9 mph - N/A   Overcast
2:15 PM 44.6 °F 41.4 °F 44.6 °F 100% 29.58 in 10.0 mi SSE 5.8 mph - N/A   Overcast
2:35 PM 44.6 °F 41.4 °F 44.6 °F 100% 29.58 in 10.0 mi SSE 5.8 mph - N/A   Light Drizzle
2:55 PM 46.4 °F 44.3 °F 44.6 °F 93% 29.57 in 10.0 mi SSE 4.6 mph - N/A   Overcast
3:15 PM 48.2 °F - 44.6 °F 87% 29.58 in 10.0 mi South 6.9 mph - N/A   Mostly Cloudy
3:35 PM 50.0 °F - 44.6 °F 82% 29.58 in 10.0 mi South 5.8 mph - N/A   Overcast
3:55 PM 50.0 °F - 44.6 °F 82% 29.59 in 10.0 mi South 4.6 mph - N/A   Overcast
4:15 PM 50.0 °F - 42.8 °F 76% 29.59 in 10.0 mi South 8.1 mph - N/A   Overcast
4:35 PM 50.0 °F - 41.0 °F 71% 29.60 in 10.0 mi SSW 12.7 mph 17.3 mph N/A   Overcast
4:55 PM 50.0 °F - 37.4 °F 62% 29.62 in 10.0 mi SSW 13.8 mph 20.7 mph N/A   Overcast
5:15 PM 48.2 °F - 37.4 °F 66% 29.63 in 10.0 mi SW 12.7 mph 16.1 mph N/A   Overcast
5:35 PM 46.4 °F 44.3 °F 35.6 °F 66% 29.65 in 10.0 mi WSW 4.6 mph - N/A   Overcast
5:55 PM 46.4 °F 43.5 °F 35.6 °F 66% 29.66 in 10.0 mi SW 5.8 mph - N/A   Overcast
6:15 PM 46.4 °F 41.9 °F 35.6 °F 66% 29.67 in 10.0 mi SW 9.2 mph - N/A   Overcast
6:35 PM 46.4 °F 42.9 °F 35.6 °F 66% 29.68 in 10.0 mi SSW 6.9 mph - N/A   Overcast
6:55 PM 46.4 °F 42.9 °F 35.6 °F 66% 29.68 in 10.0 mi SSW 6.9 mph - N/A   Overcast
7:15 PM 44.6 °F 41.4 °F 35.6 °F 71% 29.70 in 10.0 mi SW 5.8 mph - N/A   Overcast
7:35 PM 44.6 °F 42.2 °F 35.6 °F 71% 29.70 in 10.0 mi SW 4.6 mph - N/A   Overcast
7:55 PM 44.6 °F - 35.6 °F 71% 29.71 in 10.0 mi Calm Calm - N/A   Overcast
8:15 PM 44.6 °F 41.4 °F 35.6 °F 71% 29.72 in 10.0 mi SW 5.8 mph - N/A   Overcast
8:35 PM 44.6 °F 42.2 °F 37.4 °F 76% 29.72 in 10.0 mi SW 4.6 mph - N/A   Overcast
8:55 PM 44.6 °F 43.1 °F 35.6 °F 71% 29.73 in 10.0 mi SSW 3.5 mph - N/A   Overcast
9:15 PM 44.6 °F 42.2 °F 35.6 °F 71% 29.74 in 10.0 mi SW 4.6 mph - N/A   Overcast
9:35 PM 44.6 °F 39.7 °F 35.6 °F 71% 29.76 in 10.0 mi WSW 9.2 mph 19.6 mph N/A   Overcast
9:55 PM 42.8 °F 38.0 °F 35.6 °F 76% 29.76 in 10.0 mi SW 8.1 mph 17.3 mph N/A   Overcast
10:15 PM 42.8 °F 40.1 °F 37.4 °F 81% 29.77 in 7.0 mi SW 4.6 mph - N/A Rain Light Rain
10:35 PM 41.0 °F 36.4 °F 37.4 °F 87% 29.78 in 7.0 mi WSW 6.9 mph - N/A   Heavy Drizzle
10:55 PM 41.0 °F 38.0 °F 39.2 °F 93% 29.78 in 10.0 mi SW 4.6 mph - N/A   Overcast
11:15 PM 41.0 °F 39.0 °F 37.4 °F 87% 29.78 in 10.0 mi WSW 3.5 mph - N/A   Overcast
11:55 PM 41.0 °F - 37.4 °F 87% 29.78 in 10.0 mi Calm Calm - N/A   Overcast